| time (UTC) | temp F | wind direction | speed MPH | gust MPH | rain 1hr in | rain 24hr in | rain mn in | humidity % | barometer mb |
| 20260506191209 | 52 | 51 | 0.0 | 1.0 | 0.00 | 0.04 | 0.04 | 78 | 1010.8 |
| 20260506190712 | 52 | 51 | 0.0 | 0.0 | 0.00 | 0.04 | 0.04 | 78 | 1010.8 |
| 20260506190206 | 52 | 52 | 0.0 | 0.0 | 0.00 | 0.04 | 0.04 | 78 | 1010.7 |
| 20260506185716 | 52 | 52 | 0.0 | 0.0 | 0.00 | 0.04 | 0.04 | 77 | 1010.7 |
| 20260506185217 | 52 | 52 | 0.0 | 0.0 | 0.00 | 0.04 | 0.04 | 77 | 1010.6 |
| 20260506184711 | 52 | 52 | 0.0 | 0.0 | 0.00 | 0.04 | 0.04 | 77 | 1010.6 |
| 20260506184211 | 52 | 52 | 0.0 | 0.0 | 0.00 | 0.04 | 0.04 | 76 | 1010.6 |
| 20260506183713 | 52 | 52 | 0.0 | 2.0 | 0.00 | 0.04 | 0.04 | 76 | 1010.5 |
| 20260506183215 | 52 | 52 | 0.0 | 3.0 | 0.00 | 0.04 | 0.04 | 75 | 1010.4 |
| 20260506182715 | 52 | 52 | 0.0 | 3.0 | 0.00 | 0.04 | 0.04 | 75 | 1010.4 |
| 20260506181713 | 52 | 51 | 0.0 | 2.0 | 0.00 | 0.04 | 0.04 | 74 | 1010.2 |
| 20260506181208 | 52 | 51 | 1.0 | 3.0 | 0.00 | 0.04 | 0.04 | 74 | 1010.2 |
| 20260506180713 | 52 | 51 | 1.0 | 3.0 | 0.00 | 0.04 | 0.04 | 74 | 1010.1 |
| 20260506180212 | 52 | 51 | 1.0 | 3.0 | 0.00 | 0.04 | 0.04 | 74 | 1010.0 |
| 20260506175705 | 52 | 48 | 1.0 | 3.0 | 0.00 | 0.04 | 0.04 | 74 | 1010.0 |
| 20260506174719 | 52 | 58 | 1.0 | 4.0 | 0.00 | 0.04 | 0.04 | 74 | 1009.9 |
| 20260506174220 | 52 | 55 | 1.0 | 4.0 | 0.00 | 0.04 | 0.04 | 73 | 1009.8 |
| 20260506173707 | 52 | 68 | 1.0 | 4.0 | 0.00 | 0.04 | 0.04 | 73 | 1009.9 |
| 20260506173206 | 52 | 68 | 2.0 | 4.0 | 0.00 | 0.04 | 0.04 | 73 | 1009.8 |
| 20260506172714 | 53 | 72 | 1.0 | 4.0 | 0.00 | 0.04 | 0.04 | 73 | 1009.8 |
| 20260506172220 | 53 | 56 | 1.0 | 3.0 | 0.00 | 0.04 | 0.04 | 74 | 1009.7 |
| 20260506171711 | 53 | 56 | 2.0 | 3.0 | 0.00 | 0.04 | 0.04 | 74 | 1009.7 |
| 20260506171219 | 53 | 56 | 2.0 | 2.0 | 0.00 | 0.04 | 0.04 | 74 | 1009.7 |
| 20260506170709 | 53 | 56 | 1.0 | 2.0 | 0.00 | 0.04 | 0.04 | 74 | 1009.7 |
| 20260506170219 | 53 | 41 | 0.0 | 2.0 | 0.00 | 0.04 | 0.04 | 74 | 1009.7 |
| 20260506165705 | 53 | 41 | 1.0 | 3.0 | 0.00 | 0.04 | 0.04 | 74 | 1009.6 |
| 20260506165212 | 53 | 35 | 0.0 | 4.0 | 0.00 | 0.04 | 0.04 | 74 | 1009.6 |
| 20260506164712 | 53 | 35 | 1.0 | 4.0 | 0.00 | 0.04 | 0.04 | 73 | 1009.6 |
| 20260506164209 | 53 | 31 | 1.0 | 4.0 | 0.00 | 0.04 | 0.04 | 74 | 1009.6 |
| 20260506163711 | 53 | 66 | 0.0 | 4.0 | 0.00 | 0.04 | 0.04 | 73 | 1009.6 |
| 20260506162238 | 53 | 66 | 2.0 | 4.0 | 0.00 | 0.04 | 0.04 | 73 | 1009.5 |
| 20260506161728 | 53 | 76 | 1.0 | 4.0 | 0.00 | 0.04 | 0.04 | 73 | 1009.5 |
| 20260506161224 | 53 | 82 | 2.0 | 4.0 | 0.00 | 0.04 | 0.04 | 73 | 1009.5 |
| 20260506160717 | 53 | 83 | 1.0 | 3.0 | 0.00 | 0.04 | 0.04 | 74 | 1009.5 |
| 20260506160230 | 53 | 80 | 1.0 | 3.0 | 0.00 | 0.04 | 0.04 | 74 | 1009.5 |
| 20260506155707 | 53 | 86 | 2.0 | 3.0 | 0.00 | 0.04 | 0.04 | 73 | 1009.5 |
| 20260506155210 | 53 | 103 | 1.0 | 4.0 | 0.00 | 0.04 | 0.04 | 74 | 1009.6 |
| 20260506154715 | 53 | 106 | 1.0 | 5.0 | 0.00 | 0.04 | 0.04 | 74 | 1009.6 |
| 20260506154207 | 53 | 104 | 1.0 | 5.0 | 0.00 | 0.04 | 0.04 | 74 | 1009.5 |
| 20260506153210 | 53 | 41 | 1.0 | 9.0 | 0.00 | 0.04 | 0.04 | 72 | 1009.6 |
| 20260506152713 | 53 | 69 | 3.0 | 9.0 | 0.00 | 0.04 | 0.04 | 72 | 1009.6 |
| 20260506152210 | 53 | 76 | 5.0 | 5.0 | 0.00 | 0.04 | 0.04 | 73 | 1009.6 |
| 20260506151715 | 53 | 75 | 2.0 | 7.0 | 0.00 | 0.04 | 0.04 | 74 | 1009.5 |
| 20260506151206 | 53 | 51 | 2.0 | 7.0 | 0.00 | 0.04 | 0.04 | 73 | 1009.4 |
| 20260506150214 | 53 | 63 | 3.0 | 4.0 | 0.00 | 0.04 | 0.04 | 75 | 1009.4 |
| 20260506145707 | 53 | 73 | 2.0 | 6.0 | 0.00 | 0.04 | 0.04 | 76 | 1009.4 |
| 20260506145216 | 53 | 54 | 2.0 | 6.0 | 0.00 | 0.04 | 0.04 | 75 | 1009.4 |
| 20260506144219 | 53 | 72 | 3.0 | 11.0 | 0.00 | 0.04 | 0.04 | 74 | 1009.4 |
| 20260506143708 | 53 | 75 | 4.0 | 11.0 | 0.00 | 0.04 | 0.04 | 72 | 1009.4 |
| 20260506142714 | 53 | 54 | 3.0 | 12.0 | 0.00 | 0.04 | 0.04 | 73 | 1009.3 |
| 20260506142215 | 53 | 92 | 2.0 | 14.0 | 0.00 | 0.04 | 0.04 | 73 | 1009.3 |
| 20260506141707 | 53 | 28 | 4.0 | 14.0 | 0.00 | 0.04 | 0.04 | 72 | 1009.3 |
| 20260506141246 | 53 | 78 | 6.0 | 10.0 | 0.00 | 0.04 | 0.04 | 73 | 1009.3 |
| 20260506140718 | 53 | 94 | 4.0 | 10.0 | 0.00 | 0.04 | 0.04 | 73 | 1009.4 |
| 20260506140219 | 53 | 56 | 4.0 | 10.0 | 0.00 | 0.04 | 0.04 | 73 | 1009.3 |
| 20260506135711 | 53 | 37 | 4.0 | 11.0 | 0.00 | 0.04 | 0.04 | 73 | 1009.3 |
| 20260506135208 | 53 | 96 | 4.0 | 11.0 | 0.00 | 0.04 | 0.04 | 73 | 1009.3 |
| 20260506134720 | 53 | 66 | 4.0 | 13.0 | 0.00 | 0.04 | 0.04 | 74 | 1009.3 |
| 20260506134218 | 53 | 25 | 5.0 | 13.0 | 0.00 | 0.04 | 0.04 | 74 | 1009.3 |
| 20260506133715 | 53 | 96 | 4.0 | 12.0 | 0.00 | 0.04 | 0.04 | 72 | 1009.3 |
| 20260506133215 | 53 | 69 | 5.0 | 10.0 | 0.00 | 0.04 | 0.04 | 72 | 1009.3 |
| 20260506132713 | 53 | 32 | 5.0 | 10.0 | 0.00 | 0.04 | 0.04 | 71 | 1009.3 |
| 20260506131710 | 52 | 72 | 4.0 | 11.0 | 0.00 | 0.04 | 0.04 | 72 | 1009.4 |
| 20260506131205 | 52 | 55 | 4.0 | 12.0 | 0.00 | 0.04 | 0.04 | 71 | 1009.4 |
| 20260506130713 | 52 | 17 | 5.0 | 12.0 | 0.00 | 0.04 | 0.04 | 71 | 1009.4 |
| 20260506130207 | 52 | 66 | 4.0 | 12.0 | 0.00 | 0.04 | 0.04 | 71 | 1009.5 |
| 20260506125713 | 52 | 93 | 6.0 | 12.0 | 0.00 | 0.04 | 0.04 | 71 | 1009.5 |
| 20260506125212 | 51 | 61 | 6.0 | 12.0 | 0.00 | 0.04 | 0.04 | 71 | 1009.4 |
| 20260506124716 | 51 | 56 | 6.0 | 11.0 | 0.00 | 0.04 | 0.04 | 72 | 1009.4 |
| 20260506124206 | 51 | 90 | 4.0 | 14.0 | 0.00 | 0.04 | 0.04 | 74 | 1009.3 |
| 20260506123208 | 51 | 78 | 4.0 | 14.0 | 0.00 | 0.04 | 0.04 | 74 | 1009.4 |
| 20260506122716 | 51 | 85 | 6.0 | 13.0 | 0.00 | 0.04 | 0.04 | 73 | 1009.3 |
| 20260506122211 | 51 | 0 | 7.0 | 12.0 | 0.00 | 0.04 | 0.04 | 74 | 1009.3 |
| 20260506121206 | 51 | 39 | 5.0 | 13.0 | 0.00 | 0.04 | 0.04 | 76 | 1009.3 |
| 20260506120209 | 51 | 61 | 3.0 | 13.0 | 0.00 | 0.04 | 0.04 | 76 | 1009.3 |
| 20260506115219 | 51 | 58 | 5.0 | 11.0 | 0.00 | 0.04 | 0.04 | 76 | 1009.1 |
| 20260506114714 | 51 | 96 | 7.0 | 10.0 | 0.00 | 0.04 | 0.04 | 76 | 1009.0 |
| 20260506114212 | 51 | 59 | 4.0 | 10.0 | 0.00 | 0.04 | 0.04 | 77 | 1009.0 |
| 20260506113719 | 51 | 41 | 3.0 | 10.0 | 0.00 | 0.04 | 0.04 | 76 | 1009.0 |
| 20260506113211 | 51 | 55 | 5.0 | 10.0 | 0.00 | 0.04 | 0.04 | 76 | 1008.9 |
| 20260506112712 | 51 | 24 | 4.0 | 10.0 | 0.00 | 0.04 | 0.04 | 76 | 1008.9 |
| 20260506112208 | 51 | 39 | 4.0 | 9.0 | 0.00 | 0.04 | 0.04 | 76 | 1008.9 |
| 20260506111709 | 51 | 63 | 6.0 | 9.0 | 0.00 | 0.04 | 0.04 | 75 | 1008.9 |
| 20260506111215 | 51 | 85 | 5.0 | 9.0 | 0.00 | 0.04 | 0.04 | 75 | 1008.8 |
| 20260506110717 | 51 | 100 | 4.0 | 12.0 | 0.00 | 0.04 | 0.04 | 75 | 1008.8 |
| 20260506110207 | 51 | 47 | 5.0 | 14.0 | 0.00 | 0.04 | 0.04 | 74 | 1008.7 |
| 20260506105712 | 51 | 80 | 3.0 | 14.0 | 0.00 | 0.04 | 0.04 | 73 | 1008.7 |
| 20260506105219 | 51 | 0 | 5.0 | 14.0 | 0.00 | 0.04 | 0.04 | 74 | 1008.8 |
| 20260506104717 | 51 | 14 | 6.0 | 11.0 | 0.00 | 0.04 | 0.04 | 74 | 1008.8 |
| 20260506103714 | 51 | 103 | 4.0 | 6.0 | 0.00 | 0.04 | 0.04 | 76 | 1008.8 |
| 20260506103209 | 51 | 47 | 1.0 | 6.0 | 0.00 | 0.04 | 0.04 | 77 | 1008.7 |
| 20260506102711 | 51 | 51 | 2.0 | 7.0 | 0.00 | 0.04 | 0.04 | 77 | 1008.7 |
| 20260506101709 | 50 | 17 | 4.0 | 7.0 | 0.00 | 0.04 | 0.04 | 76 | 1008.6 |
| 20260506100710 | 50 | 58 | 4.0 | 9.0 | 0.00 | 0.04 | 0.04 | 76 | 1008.6 |
| 20260506100239 | 50 | 51 | 4.0 | 9.0 | 0.00 | 0.04 | 0.04 | 77 | 1008.6 |
| 20260506095714 | 50 | 14 | 3.0 | 9.0 | 0.00 | 0.04 | 0.04 | 78 | 1008.5 |
| 20260506095211 | 50 | 23 | 2.0 | 9.0 | 0.00 | 0.04 | 0.04 | 78 | 1008.5 |
| 20260506094707 | 50 | 72 | 2.0 | 9.0 | 0.00 | 0.04 | 0.04 | 77 | 1008.6 |
| 20260506094210 | 50 | 42 | 2.0 | 11.0 | 0.00 | 0.04 | 0.04 | 77 | 1008.5 |
| 20260506093217 | 50 | 38 | 5.0 | 11.0 | 0.00 | 0.04 | 0.04 | 76 | 1008.5 |
| 20260506092705 | 50 | 42 | 5.0 | 12.0 | 0.00 | 0.04 | 0.04 | 75 | 1008.4 |
| 20260506092207 | 50 | 45 | 6.0 | 12.0 | 0.00 | 0.04 | 0.04 | 76 | 1008.4 |
| 20260506091709 | 50 | 79 | 3.0 | 12.0 | 0.00 | 0.04 | 0.04 | 76 | 1008.4 |
| 20260506091219 | 50 | 68 | 4.0 | 11.0 | 0.00 | 0.04 | 0.04 | 77 | 1008.3 |
| 20260506090707 | 50 | 62 | 3.0 | 11.0 | 0.00 | 0.04 | 0.04 | 76 | 1008.3 |
| 20260506090215 | 50 | 80 | 4.0 | 11.0 | 0.00 | 0.04 | 0.04 | 77 | 1008.3 |
| 20260506085709 | 50 | 71 | 4.0 | 9.0 | 0.00 | 0.04 | 0.04 | 78 | 1008.2 |
| 20260506084710 | 50 | 79 | 4.0 | 10.0 | 0.00 | 0.04 | 0.04 | 79 | 1008.2 |
| 20260506084217 | 50 | 80 | 4.0 | 10.0 | 0.00 | 0.04 | 0.04 | 80 | 1008.2 |
| 20260506082707 | 50 | 355 | 2.0 | 11.0 | 0.00 | 0.04 | 0.04 | 80 | 1008.1 |
| 20260506081208 | 50 | 79 | 3.0 | 9.0 | 0.00 | 0.04 | 0.04 | 82 | 1007.9 |
| 20260506080722 | 50 | 37 | 4.0 | 12.0 | 0.00 | 0.04 | 0.04 | 82 | 1007.9 |
| 20260506080206 | 50 | 69 | 3.0 | 12.0 | 0.00 | 0.04 | 0.04 | 83 | 1007.9 |
| 20260506073209 | 49 | 58 | 4.0 | 7.0 | 0.00 | 0.04 | 0.04 | 84 | 1007.8 |
| 20260506072714 | 49 | 48 | 3.0 | 9.0 | 0.00 | 0.04 | 0.04 | 84 | 1007.8 |
| 20260506072242 | 49 | 42 | 3.0 | 9.0 | 0.00 | 0.04 | 0.04 | 84 | 1007.9 |
| 20260506071706 | 49 | 80 | 2.0 | 9.0 | 0.00 | 0.04 | 0.04 | 85 | 1007.8 |
| 20260506071217 | 49 | 35 | 3.0 | 9.0 | 0.00 | 0.04 | 0.04 | 85 | 1007.8 |
| 20260506070717 | 49 | 55 | 5.0 | 9.0 | 0.00 | 0.04 | 0.04 | 85 | 1007.8 |
| 20260506070219 | 49 | 45 | 4.0 | 9.0 | 0.00 | 0.04 | 0.04 | 85 | 1007.7 |
| 20260506062214 | 48 | 24 | 1.0 | 5.0 | 0.02 | 0.04 | 0.04 | 87 | 1007.6 |
| 20260506061712 | 48 | 44 | 1.0 | 3.0 | 0.02 | 0.04 | 0.04 | 87 | 1007.6 |
| 20260506061208 | 48 | 48 | 0.0 | 5.0 | 0.02 | 0.04 | 0.04 | 87 | 1007.6 |
| 20260506060718 | 48 | 47 | 0.0 | 5.0 | 0.02 | 0.04 | 0.04 | 87 | 1007.5 |
| 20260506060218 | 48 | 69 | 1.0 | 5.0 | 0.02 | 0.04 | 0.04 | 87 | 1007.6 |
| 20260506050710 | 49 | 23 | 2.0 | 7.0 | 0.02 | 0.02 | 0.02 | 87 | 1007.6 |
| 20260506050207 | 49 | 42 | 4.0 | 7.0 | 0.02 | 0.02 | 0.02 | 87 | 1007.6 |
| 20260506044207 | 49 | 83 | 4.0 | 9.0 | 0.01 | 0.01 | 0.01 | 87 | 1007.5 |
| 20260506043705 | 49 | 72 | 3.0 | 6.0 | 0.01 | 0.01 | 0.01 | 87 | 1007.4 |
| 20260506043216 | 49 | 71 | 3.0 | 6.0 | 0.01 | 0.01 | 0.01 | 86 | 1007.4 |
| 20260506042713 | 49 | 47 | 2.0 | 6.0 | 0.00 | 0.00 | 0.00 | 86 | 1007.4 |
| 20260506041716 | 50 | 6 | 1.0 | 6.0 | 0.00 | 0.00 | 0.00 | 86 | 1007.3 |
| 20260506041217 | 50 | 65 | 2.0 | 6.0 | 0.00 | 0.00 | 0.00 | 86 | 1007.3 |
| 20260506040705 | 50 | 48 | 2.0 | 6.0 | 0.00 | 0.00 | 0.00 | 86 | 1007.4 |
| 20260506040207 | 50 | 0 | 3.0 | 9.0 | 0.00 | 0.00 | 0.00 | 86 | 1007.4 |
| 20260506035707 | 50 | 49 | 2.0 | 10.0 | 0.00 | 0.00 | 0.00 | 85 | 1007.3 |
| 20260506034711 | 50 | 48 | 2.0 | 10.0 | 0.00 | 0.00 | 0.00 | 85 | 1007.4 |
| 20260506034206 | 50 | 21 | 3.0 | 7.0 | 0.00 | 0.00 | 0.00 | 86 | 1007.4 |
| 20260506033714 | 50 | 0 | 3.0 | 7.0 | 0.00 | 0.00 | 0.00 | 86 | 1007.4 |
| 20260506032705 | 50 | 31 | 3.0 | 9.0 | 0.00 | 0.00 | 0.00 | 86 | 1007.5 |
| 20260506032217 | 50 | 37 | 2.0 | 9.0 | 0.00 | 0.00 | 0.00 | 86 | 1007.5 |
| 20260506031709 | 50 | 20 | 1.0 | 7.0 | 0.00 | 0.00 | 0.00 | 86 | 1007.6 |
| 20260506031218 | 50 | 10 | 2.0 | 10.0 | 0.00 | 0.00 | 0.00 | 86 | 1007.7 |
| 20260506030719 | 50 | 75 | 0.0 | 10.0 | 0.00 | 0.00 | 0.00 | 86 | 1007.6 |
| 20260506030208 | 50 | 23 | 2.0 | 10.0 | 0.00 | 0.00 | 0.00 | 86 | 1007.6 |
| 20260506025718 | 50 | 59 | 2.0 | 10.0 | 0.00 | 0.00 | 0.00 | 86 | 1007.6 |
| 20260506025206 | 50 | 27 | 3.0 | 10.0 | 0.00 | 0.00 | 0.00 | 86 | 1007.7 |
| 20260506024712 | 50 | 34 | 2.0 | 10.0 | 0.00 | 0.00 | 0.00 | 86 | 1007.7 |
| 20260506024218 | 50 | 58 | 3.0 | 9.0 | 0.00 | 0.00 | 0.00 | 86 | 1007.7 |
| 20260506023717 | 50 | 307 | 2.0 | 9.0 | 0.00 | 0.00 | 0.00 | 86 | 1007.7 |
| 20260506023215 | 50 | 21 | 2.0 | 9.0 | 0.00 | 0.00 | 0.00 | 86 | 1007.7 |
| 20260506022716 | 50 | 25 | 2.0 | 7.0 | 0.00 | 0.00 | 0.00 | 86 | 1007.7 |
| 20260506022218 | 50 | 1 | 3.0 | 9.0 | 0.00 | 0.00 | 0.00 | 86 | 1007.8 |
| 20260506021706 | 50 | 51 | 2.0 | 9.0 | 0.00 | 0.00 | 0.00 | 86 | 1007.8 |
| 20260506021217 | 50 | 3 | 1.0 | 9.0 | 0.00 | 0.00 | 0.00 | 86 | 1007.9 |
| 20260506020712 | 50 | 41 | 3.0 | 6.0 | 0.00 | 0.00 | 0.00 | 86 | 1008.0 |
| 20260506020215 | 50 | 11 | 3.0 | 6.0 | 0.00 | 0.00 | 0.00 | 85 | 1008.0 |
| 20260506015716 | 50 | 79 | 2.0 | 9.0 | 0.00 | 0.00 | 0.00 | 85 | 1008.0 |
| 20260506015207 | 50 | 21 | 2.0 | 9.0 | 0.00 | 0.00 | 0.00 | 85 | 1008.1 |
| 20260506014707 | 50 | 13 | 2.0 | 9.0 | 0.00 | 0.00 | 0.00 | 85 | 1008.1 |
| 20260506014220 | 50 | 0 | 2.0 | 6.0 | 0.00 | 0.00 | 0.00 | 85 | 1008.1 |
| 20260506013710 | 50 | 51 | 1.0 | 7.0 | 0.00 | 0.00 | 0.00 | 85 | 1008.2 |
| 20260506012217 | 50 | 38 | 3.0 | 7.0 | 0.00 | 0.00 | 0.00 | 84 | 1008.3 |
| 20260506011712 | 50 | 7 | 1.0 | 7.0 | 0.00 | 0.00 | 0.00 | 84 | 1008.3 |
| 20260506010209 | 50 | 31 | 2.0 | 11.0 | 0.00 | 0.00 | 0.00 | 84 | 1008.3 |
| 20260506005709 | 50 | 51 | 1.0 | 11.0 | 0.00 | 0.00 | 0.00 | 84 | 1008.3 |
| 20260506005207 | 50 | 48 | 3.0 | 7.0 | 0.00 | 0.00 | 0.00 | 84 | 1008.3 |
| 20260506004715 | 50 | 0 | 2.0 | 7.0 | 0.00 | 0.00 | 0.00 | 84 | 1008.4 |
| 20260506004206 | 50 | 65 | 1.0 | 7.0 | 0.00 | 0.00 | 0.00 | 84 | 1008.4 |
| 20260506003217 | 50 | 97 | 3.0 | 6.0 | 0.00 | 0.00 | 0.00 | 84 | 1008.5 |
| 20260506002720 | 50 | 66 | 3.0 | 9.0 | 0.00 | 0.00 | 0.00 | 84 | 1008.6 |
| 20260506002219 | 50 | 41 | 2.0 | 9.0 | 0.00 | 0.00 | 0.00 | 84 | 1008.6 |
| 20260506001715 | 50 | 49 | 2.0 | 9.0 | 0.00 | 0.00 | 0.00 | 84 | 1008.6 |
| 20260506001217 | 50 | 42 | 1.0 | 5.0 | 0.00 | 0.00 | 0.00 | 83 | 1008.6 |
| 20260506000710 | 50 | 54 | 2.0 | 5.0 | 0.00 | 0.00 | 0.00 | 83 | 1008.7 |
| 20260506000219 | 50 | 44 | 1.0 | 7.0 | 0.00 | 0.00 | 0.00 | 83 | 1008.8 |
| 20260505235708 | 50 | 56 | 1.0 | 7.0 | 0.00 | 0.00 | 0.00 | 83 | 1008.9 |
| 20260505235208 | 50 | 52 | 3.0 | 7.0 | 0.00 | 0.00 | 0.00 | 83 | 1008.9 |
| 20260505234707 | 50 | 16 | 2.0 | 7.0 | 0.00 | 0.00 | 0.00 | 83 | 1009.0 |
| 20260505234209 | 50 | 357 | 1.0 | 7.0 | 0.00 | 0.00 | 0.00 | 83 | 1009.1 |
| 20260505233711 | 50 | 68 | 2.0 | 7.0 | 0.00 | 0.00 | 0.00 | 82 | 1009.1 |
| 20260505233211 | 50 | 10 | 3.0 | 6.0 | 0.00 | 0.00 | 0.00 | 82 | 1009.1 |
| 20260505232712 | 50 | 314 | 2.0 | 6.0 | 0.00 | 0.00 | 0.00 | 82 | 1009.1 |
| 20260505231716 | 50 | 35 | 2.0 | 7.0 | 0.00 | 0.00 | 0.00 | 82 | 1009.1 |
| 20260505231217 | 50 | 0 | 3.0 | 10.0 | 0.00 | 0.00 | 0.00 | 81 | 1009.1 |
| 20260505230712 | 50 | 51 | 2.0 | 10.0 | 0.00 | 0.00 | 0.00 | 81 | 1009.1 |
| 20260505230218 | 50 | 55 | 3.0 | 10.0 | 0.00 | 0.00 | 0.00 | 81 | 1009.1 |
| 20260505225710 | 50 | 73 | 4.0 | 10.0 | 0.00 | 0.00 | 0.00 | 81 | 1009.2 |
| 20260505225215 | 50 | 16 | 3.0 | 10.0 | 0.00 | 0.00 | 0.00 | 81 | 1009.1 |
| 20260505224710 | 50 | 0 | 3.0 | 7.0 | 0.00 | 0.00 | 0.00 | 81 | 1009.3 |
| 20260505224211 | 50 | 0 | 4.0 | 6.0 | 0.00 | 0.00 | 0.00 | 81 | 1009.3 |
| 20260505223714 | 50 | 48 | 2.0 | 7.0 | 0.00 | 0.00 | 0.00 | 81 | 1009.3 |
| 20260505223212 | 50 | 65 | 2.0 | 9.0 | 0.00 | 0.00 | 0.00 | 81 | 1009.4 |
| 20260505222709 | 50 | 21 | 2.0 | 9.0 | 0.00 | 0.00 | 0.00 | 81 | 1009.3 |
| 20260505222217 | 50 | 63 | 3.0 | 9.0 | 0.00 | 0.00 | 0.00 | 81 | 1009.4 |
| 20260505221706 | 50 | 0 | 3.0 | 10.0 | 0.00 | 0.00 | 0.00 | 82 | 1009.4 |
| 20260505221211 | 50 | 39 | 2.0 | 10.0 | 0.00 | 0.00 | 0.00 | 82 | 1009.4 |
| 20260505220716 | 50 | 38 | 4.0 | 10.0 | 0.00 | 0.00 | 0.00 | 82 | 1009.3 |
| 20260505220209 | 50 | 35 | 3.0 | 11.0 | 0.00 | 0.00 | 0.00 | 82 | 1009.3 |
| 20260505215718 | 50 | 55 | 3.0 | 11.0 | 0.00 | 0.00 | 0.00 | 82 | 1009.4 |
| 20260505215209 | 50 | 44 | 2.0 | 9.0 | 0.00 | 0.00 | 0.00 | 82 | 1009.4 |
| 20260505214710 | 50 | 23 | 2.0 | 9.0 | 0.00 | 0.00 | 0.00 | 82 | 1009.4 |
| 20260505214213 | 50 | 82 | 2.0 | 9.0 | 0.00 | 0.00 | 0.00 | 82 | 1009.5 |
| 20260505213718 | 50 | 38 | 2.0 | 9.0 | 0.00 | 0.00 | 0.00 | 82 | 1009.6 |
| 20260505213215 | 50 | 23 | 3.0 | 7.0 | 0.00 | 0.00 | 0.00 | 82 | 1009.6 |
| 20260505212705 | 50 | 37 | 3.0 | 7.0 | 0.00 | 0.00 | 0.00 | 82 | 1009.6 |
| 20260505212212 | 50 | 303 | 2.0 | 7.0 | 0.00 | 0.00 | 0.00 | 82 | 1009.7 |
| 20260505211715 | 50 | 51 | 2.0 | 10.0 | 0.00 | 0.00 | 0.00 | 82 | 1009.7 |
| 20260505210713 | 50 | 93 | 2.0 | 9.0 | 0.00 | 0.00 | 0.00 | 82 | 1009.7 |
| 20260505210209 | 50 | 11 | 2.0 | 10.0 | 0.00 | 0.00 | 0.00 | 82 | 1009.7 |
| 20260505205718 | 50 | 0 | 2.0 | 10.0 | 0.00 | 0.00 | 0.00 | 82 | 1009.8 |
| 20260505205209 | 50 | 3 | 2.0 | 10.0 | 0.00 | 0.00 | 0.00 | 83 | 1009.8 |
| 20260505204708 | 50 | 10 | 3.0 | 7.0 | 0.00 | 0.00 | 0.00 | 83 | 1009.8 |
| 20260505204210 | 50 | 11 | 2.0 | 7.0 | 0.00 | 0.00 | 0.00 | 83 | 1009.8 |
| 20260505203711 | 50 | 30 | 2.0 | 7.0 | 0.00 | 0.00 | 0.00 | 83 | 1009.9 |
| 20260505203211 | 50 | 72 | 3.0 | 7.0 | 0.00 | 0.00 | 0.00 | 83 | 1009.9 |
| 20260505202711 | 50 | 54 | 2.0 | 12.0 | 0.00 | 0.00 | 0.00 | 83 | 1009.9 |
| 20260505202205 | 50 | 51 | 3.0 | 12.0 | 0.00 | 0.00 | 0.00 | 83 | 1009.9 |
| 20260505201709 | 50 | 54 | 3.0 | 12.0 | 0.00 | 0.00 | 0.00 | 83 | 1009.8 |
| 20260505201217 | 51 | 0 | 4.0 | 7.0 | 0.00 | 0.00 | 0.00 | 82 | 1009.9 |
| 20260505200711 | 51 | 13 | 3.0 | 7.0 | 0.00 | 0.00 | 0.00 | 82 | 1009.8 |
| 20260505200217 | 51 | 79 | 2.0 | 7.0 | 0.00 | 0.00 | 0.00 | 82 | 1009.9 |
| 20260505195719 | 51 | 8 | 2.0 | 10.0 | 0.00 | 0.00 | 0.00 | 82 | 1009.9 |
| 20260505195206 | 51 | 131 | 2.0 | 13.0 | 0.00 | 0.00 | 0.00 | 82 | 1009.9 |
| 20260505194720 | 51 | 13 | 3.0 | 13.0 | 0.00 | 0.00 | 0.00 | 82 | 1009.9 |
| 20260505192711 | 51 | 21 | 2.0 | 9.0 | 0.00 | 0.00 | 0.00 | 82 | 1009.8 |
| 20260505191720 | 51 | 62 | 3.0 | 13.0 | 0.00 | 0.00 | 0.00 | 81 | 1009.7 |